Location: Hradec Kralove
(50.2170°N, 15.8330°E)
Time: 19:05:54
(UTC+01:00)

Transit 4A - Visible Passes

Search period start: 30 January 2023 00:00
Search period end: 09 February 2023 00:00
Orbit: 871 x 973 km, 66.8° (Epoch: 30 January)

Date Brightness Start Highest point End Pass type
(mag) Time Alt. Az. Time Alt. Az. Time Alt. Az.
30 Jan 8.3 18:08:53 10° S 18:14:13 39° ESE 18:17:54 19° ENE visible
30 Jan 8.5 19:54:50 10° WSW 20:00:28 49° NW 20:01:27 45° NNW visible
30 Jan 10.5 21:44:06 10° WNW 21:45:00 13° WNW 21:45:00 13° WNW visible
31 Jan 7.9 18:17:39 10° SSW 18:23:18 55° ESE 18:27:32 18° NE visible
31 Jan 8.9 20:04:29 10° WSW 20:09:53 38° NW 20:11:04 35° NNW visible
31 Jan 10.6 21:54:07 10° NW 21:54:37 11° NW 21:54:37 11° NW visible
01 Feb 7.7 18:26:38 10° SSW 18:32:26 77° SE 18:37:04 17° NE visible
01 Feb 9.2 20:14:15 10° W 20:19:22 31° NW 20:20:36 28° NNW visible
01 Feb 10.7 22:04:05 10° NW 22:04:08 10° NW 22:04:08 10° NW visible
02 Feb 7.8 18:35:49 10° SW 18:41:39 79° NW 18:46:31 16° NE visible
02 Feb 9.5 20:24:09 10° W 20:28:54 25° NNW 20:30:03 24° N visible
03 Feb 8.2 18:45:12 10° SW 18:50:57 59° NW 18:55:53 14° NNE visible
03 Feb 9.7 20:34:07 10° WNW 20:38:31 21° NNW 20:39:25 21° N visible
04 Feb 8.7 18:54:44 10° WSW 19:00:18 45° NW 19:05:12 14° NNE visible
04 Feb 9.9 20:44:09 10° WNW 20:48:10 19° NNW 20:48:43 19° N visible
05 Feb 9.1 19:04:25 10° WSW 19:09:44 35° NW 19:14:27 13° NNE visible
05 Feb 10.0 20:54:09 10° NW 20:57:53 17° NNW 20:57:58 17° N visible
06 Feb 7.8 17:26:23 10° SSW 17:32:12 85° SE 17:38:05 10° NE visible
06 Feb 9.4 19:14:14 10° W 19:19:14 29° NNW 19:23:40 13° NNE visible
06 Feb 10.1 21:04:05 10° NW 21:07:10 16° N 21:07:10 16° N visible
07 Feb 8.1 17:35:38 10° SW 17:41:26 72° NW 17:47:19 10° NE visible
07 Feb 9.6 19:24:09 10° W 19:28:48 24° NNW 19:32:51 12° NNE visible
07 Feb 10.2 21:13:54 10° NW 21:16:21 15° NNW 21:16:21 15° NNW visible
08 Feb 8.5 17:45:04 10° WSW 17:50:45 54° NW 17:56:30 10° NNE visible
08 Feb 9.8 19:34:09 10° WNW 19:38:25 20° NNW 19:41:59 13° NNE visible
08 Feb 10.2 21:23:34 10° NNW 21:25:29 15° NNW 21:25:29 15° NNW visible
